Regional Weather Roundup
Issued by NWS

Home | Current Version | Previous Version | Graphics & Text | Print | Product List | Glossary On
Versions: 1 2 3 4 5 6 7 8 9 10 11 12 13 14 15 16 17 18 19 20 21 22 23 24 25 26 27 28 29 30 31 32 33 34 35 36 37 38 39 40 41 42 43 44 45 46 47 48 49 50
000
ASUS43 KDTX 232110
RWRMI
MICHIGAN HOURLY REGIONAL WEATHER ROUNDUP
NATIONAL WEATHER SERVICE DETROIT/PONTIAC MI
500 PM EDT MON APR 23 2018

NOTE: "FAIR" INDICATES FEW OR NO CLOUDS BELOW 12,000 FEET WITH NO
SIGNIFICANT WEATHER AND/OR OBSTRUCTION TO VISIBILITY.

MIZ047>049-052>055-059>063-066>070-074>076-081>083-232200-
SOUTHEAST LOWER MICHIGAN

CITY           SKY/WX    TMP DP  RH WIND       PRES   REMARKS
ADRIAN         FAIR      67  44  43 SE14      30.13F
ALMA           FAIR      70  41  34 NE9       30.14F
ANN ARBOR      FAIR      71  44  37 E10       30.13F
BAD AXE        FAIR      70  29  22 SE10G22   30.18F
CARO           FAIR      72  38  28 S8        30.15S
DETROIT CITY   FAIR      70  43  37 E13       30.16F
DETROIT        PTSUNNY   72  41  32 SE10      30.15F
FLINT          FAIR      70  40  33 SE12      30.14F
GROSSE ILE     FAIR      64  47  53 CALM      30.14F
HILLSDALE      FAIR      68  41  37 E12G18    30.11S
HOWELL         FAIR      71  38  30 SE7       30.13F

CITY           SKY/WX    TMP DP  RH WIND       PRES   REMARKS
JACKSON        FAIR      72  42  34 SE12      30.12F
LAMBERTVILLE   FAIR      61  41  48 E9        30.14S
LANSING        FAIR      71  41  33 SE8       30.13F
LAPEER         FAIR      69  38  32 SE9G16    30.16F
MASON          FAIR      74  32  21 SE12G18   30.12F
MONROE         FAIR      63  38  40 E10G18    30.14F
PONTIAC        CLOUDY    68  42  38 E13       30.15F
PORT HOPE        N/A     45  35  68 E3        30.19F
PORT HURON     FAIR      70  37  30 S13       30.17F
TRI CITIES     FAIR      65  41  41 NE16      30.16F
MIDLAND        FAIR      67  40  38 E8        30.15F
TROY           FAIR      69  39  32 E8        30.18S
SAGINAW HB     FAIR      63  39  42 N10       30.14F
$$
MIZ043>046-050>051-056>058-064>065-071>073-077>080-232200-
SOUTHWEST LOWER MICHIGAN

CITY           SKY/WX    TMP DP  RH WIND       PRES   REMARKS
BATTLE CREEK   FAIR      73  41  31 SE8       30.10F
BENTON HARBOR  FAIR      68  37  32 N7        30.08F
BIG RAPIDS     FAIR      69  21  16 SE7G16    30.13F
COLDWATER      FAIR      70  41  34 SE10G16   30.09F
FREMONT        FAIR      72  14  11 SE7       30.11F
HOLLAND        FAIR      73  40  30 NE9       30.09F
GRAND RAPIDS   PTSUNNY   72  40  31 NE9       30.11F
IONIA          FAIR      71  36  27 E6        30.11F
KALAMAZOO      FAIR      74  39  28 S12       30.09F
LUDINGTON      FAIR      62  29  29 N14       30.13F
MARSHALL       FAIR      71  37  28 SE12G21   30.10F
MOUNT PLEASANT FAIR      70  39  32 E7        30.14F
MUSKEGON       PTSUNNY   74  34  23 NW3       30.11F
SOUTH HAVEN    FAIR      74  32  21 SE7       30.07F
$$
MIZ016>042-232200-
NORTHERN LOWER MICHIGAN

CITY           SKY/WX    TMP DP  RH WIND       PRES   REMARKS
ALPENA         FAIR      54  29  38 E8        30.21F
BEAVER ISLAND  FAIR      60  21  22 W6        30.21F
BELLAIRE       FAIR      63  25  23 N7        30.17F
CADILLAC       FAIR      69  25  19 E8        30.14F
CHARLEVOIX     FAIR      51  26  37 N8        30.24S
FRANKFORT      FAIR      61  27  27 N8        30.17F
GAYLORD        FAIR      63  17  17 VRB5      30.17F
HARBOR SPRINGS FAIR      50  29  44 CALM      30.19F
HOUGHTON LAKE  FAIR      68  29  23 SE7       30.16F
MANISTEE       FAIR      61  29  29 NW13      30.14F
OSCODA         FAIR      56  28  33 E6        30.20F
PELLSTON       FAIR      61  25  25 NE7       30.20F
ROGERS CITY    FAIR      53  29  39 E9        30.22F
TRAVERSE CITY  PTSUNNY   56  32  40 N3        30.17F
$$
MIZ007>008-015-232200-
EASTERN UPPER MICHIGAN

CITY           SKY/WX    TMP DP  RH WIND       PRES   REMARKS
KINROSS        FAIR      61  23  23 S8        30.21F
MACKINAC ISLAN FAIR      56  25  30 E8        30.22F
NEWBERRY       FAIR      55  22  28 S9        30.20S
S. S. MARIE    FAIR      60  26  27 SE8       30.20F
MUNISING         N/A     45  29  53 NW3       30.16F
$$
MIZ004>006-011>014-085-232200-
CENTRAL UPPER MICHIGAN

CITY           SKY/WX    TMP DP  RH WIND       PRES   REMARKS
MANISTIQUE     FAIR      50  25  37 SE6       30.21F
ESCANABA       FAIR      53  27  36 S7        30.19F
MENOMINEE      FAIR      61  26  26 SE7       30.19F
SAWYER-GWINN   SUNNY     61  23  23 S7        30.16F
$$
MIZ001>003-009>011-084-232200-
WESTERN UPPER MICHIGAN

CITY           SKY/WX    TMP DP  RH WIND       PRES   REMARKS
IRON MOUNTAIN  FAIR      67  20  16 S3        30.14F
HOUGHTON       FAIR      58  31  35 W9        30.13F
COPPER HARBOR    N/A     63  28  26 VRB5      30.11F
IRONWOOD       FAIR      62  28  27 W6        30.14F
$$

ABBREVIATIONS USED IN REMARKS
   TC - TEMPERATURE IN CELSIUS
  WCI - WIND CHILL INDEX
   HX - HEAT INDEX
  VSB - VISIBILITY





USA.gov is the U.S. government's official web portal to all federal, state and local government web resources and services.